TimeCST,TemperatureF,Dew PointF,Humidity,Sea Level PressureIn,VisibilityMPH,Wind Direction,Wind SpeedMPH,Gust SpeedMPH,PrecipitationIn,Events,Conditions,WindDirDegrees,DateUTC
12:15 AM,42.8,39.2,87,29.83,10.0,NNW,5.8,-,N/A,,Overcast,330,2012-12-18 06:15:00
12:35 AM,42.8,39.2,87,29.84,10.0,NNW,6.9,-,N/A,,Overcast,330,2012-12-18 06:35:00
12:55 AM,42.8,39.2,87,29.84,10.0,NNW,4.6,-,N/A,,Overcast,330,2012-12-18 06:55:00
1:15 AM,42.8,39.2,87,29.84,10.0,NW,3.5,-,N/A,,Overcast,310,2012-12-18 07:15:00
1:35 AM,42.8,35.6,76,29.84,10.0,WNW,11.5,-,N/A,,Overcast,300,2012-12-18 07:35:00
1:55 AM,41.0,33.8,76,29.84,10.0,NW,10.4,-,N/A,,Overcast,310,2012-12-18 07:55:00
2:15 AM,41.0,33.8,76,29.85,10.0,NW,6.9,-,N/A,,Mostly Cloudy,310,2012-12-18 08:15:00
2:35 AM,41.0,35.6,81,29.86,10.0,NW,5.8,-,N/A,,Overcast,320,2012-12-18 08:35:00
2:55 AM,41.0,35.6,81,29.87,10.0,WNW,5.8,-,N/A,,Overcast,300,2012-12-18 08:55:00
3:15 AM,41.0,35.6,81,29.86,10.0,WNW,4.6,-,N/A,,Overcast,300,2012-12-18 09:15:00
3:35 AM,41.0,35.6,81,29.87,10.0,WNW,5.8,-,N/A,,Overcast,290,2012-12-18 09:35:00
3:55 AM,41.0,35.6,81,29.87,10.0,WNW,4.6,-,N/A,,Overcast,300,2012-12-18 09:55:00
4:15 AM,39.2,35.6,87,29.87,10.0,Calm,Calm,-,N/A,,Overcast,0,2012-12-18 10:15:00
4:35 AM,39.2,33.8,81,29.87,10.0,Calm,Calm,-,N/A,,Scattered Clouds,0,2012-12-18 10:35:00
4:55 AM,37.4,33.8,87,29.88,10.0,Calm,Calm,-,N/A,,Clear,0,2012-12-18 10:55:00
5:15 AM,35.6,32.0,87,29.89,10.0,SW,3.5,-,N/A,,Clear,220,2012-12-18 11:15:00
5:55 AM,35.6,33.8,93,29.89,10.0,SSW,5.8,-,N/A,,Clear,200,2012-12-18 11:55:00
6:15 AM,35.6,33.8,93,29.89,10.0,South,5.8,-,N/A,,Clear,190,2012-12-18 12:15:00
6:35 AM,35.6,32.0,87,29.89,6.0,South,5.8,-,N/A,,Clear,190,2012-12-18 12:35:00
6:55 AM,35.6,33.8,93,29.90,5.0,South,6.9,-,N/A,,Clear,190,2012-12-18 12:55:00
7:15 AM,35.6,33.8,93,29.90,3.0,South,5.8,-,N/A,,Clear,190,2012-12-18 13:15:00
7:35 AM,35.6,35.6,100,29.90,3.0,South,5.8,-,N/A,,Clear,190,2012-12-18 13:35:00
7:55 AM,35.6,35.6,100,29.91,4.0,South,5.8,-,N/A,,Clear,190,2012-12-18 13:55:00
8:15 AM,37.4,37.4,100,29.90,5.0,SSE,4.6,-,N/A,,Clear,150,2012-12-18 14:15:00
8:35 AM,39.2,37.4,93,29.90,8.0,SSE,8.1,-,N/A,,Clear,160,2012-12-18 14:35:00
8:55 AM,41.0,37.4,87,29.91,9.0,South,9.2,-,N/A,,Clear,170,2012-12-18 14:55:00
9:15 AM,41.0,37.4,87,29.91,10.0,South,9.2,-,N/A,,Clear,170,2012-12-18 15:15:00
9:35 AM,41.0,37.4,87,29.91,10.0,South,6.9,-,N/A,,Clear,170,2012-12-18 15:35:00
9:55 AM,44.6,37.4,76,29.91,10.0,South,9.2,-,N/A,,Clear,190,2012-12-18 15:55:00
10:15 AM,46.4,37.4,71,29.91,10.0,South,9.2,-,N/A,,Clear,180,2012-12-18 16:15:00
10:35 AM,46.4,37.4,71,29.92,10.0,South,12.7,16.1,N/A,,Clear,180,2012-12-18 16:35:00
10:55 AM,48.2,37.4,66,29.92,10.0,SW,10.4,16.1,N/A,,Clear,220,2012-12-18 16:55:00
11:15 AM,48.2,39.2,71,29.92,10.0,SSW,10.4,-,N/A,,Clear,210,2012-12-18 17:15:00
11:35 AM,50.0,37.4,62,29.91,10.0,SSW,10.4,16.1,N/A,,Clear,200,2012-12-18 17:35:00
11:55 AM,50.0,37.4,62,29.90,10.0,SSW,11.5,-,N/A,,Clear,210,2012-12-18 17:55:00
12:15 PM,51.8,37.4,58,29.88,10.0,South,9.2,-,N/A,,Clear,180,2012-12-18 18:15:00
12:35 PM,53.6,35.6,51,29.87,10.0,South,9.2,19.6,N/A,,Clear,190,2012-12-18 18:35:00
12:55 PM,53.6,35.6,51,29.86,10.0,South,9.2,16.1,N/A,,Clear,190,2012-12-18 18:55:00
1:35 PM,55.4,37.4,51,29.85,10.0,South,9.2,18.4,N/A,,Clear,190,2012-12-18 19:35:00
1:55 PM,55.4,35.6,47,29.84,10.0,SSW,12.7,19.6,N/A,,Clear,210,2012-12-18 19:55:00
2:15 PM,57.2,37.4,48,29.83,10.0,South,13.8,20.7,N/A,,Clear,190,2012-12-18 20:15:00
2:35 PM,57.2,37.4,48,29.83,10.0,SSW,12.7,17.3,N/A,,Clear,200,2012-12-18 20:35:00
2:55 PM,57.2,37.4,48,29.82,10.0,South,12.7,18.4,N/A,,Clear,190,2012-12-18 20:55:00
3:15 PM,57.2,37.4,48,29.82,10.0,SSW,8.1,-,N/A,,Clear,210,2012-12-18 21:15:00
3:55 PM,55.4,35.6,47,29.83,10.0,SSW,6.9,-,N/A,,Clear,200,2012-12-18 21:55:00
4:15 PM,55.4,35.6,47,29.82,10.0,SSW,8.1,-,N/A,,Clear,200,2012-12-18 22:15:00
4:55 PM,53.6,35.6,51,29.83,10.0,South,5.8,-,N/A,,Partly Cloudy,190,2012-12-18 22:55:00
5:15 PM,51.8,35.6,54,29.83,10.0,South,5.8,-,N/A,,Mostly Cloudy,190,2012-12-18 23:15:00
5:55 PM,50.0,35.6,58,29.84,10.0,South,5.8,-,N/A,,Overcast,180,2012-12-18 23:55:00
6:15 PM,50.0,35.6,58,29.85,10.0,South,5.8,-,N/A,,Overcast,190,2012-12-19 00:15:00
6:35 PM,50.0,35.6,58,29.86,10.0,SSW,5.8,-,N/A,,Overcast,200,2012-12-19 00:35:00
6:55 PM,50.0,37.4,62,29.86,10.0,South,6.9,-,N/A,,Overcast,190,2012-12-19 00:55:00
7:35 PM,48.2,37.4,66,29.87,10.0,South,8.1,-,N/A,,Partly Cloudy,190,2012-12-19 01:35:00
7:55 PM,48.2,37.4,66,29.87,10.0,SSW,8.1,-,N/A,,Partly Cloudy,200,2012-12-19 01:55:00
8:15 PM,48.2,37.4,66,29.88,10.0,South,9.2,-,N/A,,Clear,190,2012-12-19 02:15:00
8:35 PM,48.2,39.2,71,29.89,10.0,SSW,8.1,-,N/A,,Clear,200,2012-12-19 02:35:00
8:55 PM,48.2,39.2,71,29.88,10.0,SSW,8.1,-,N/A,,Clear,200,2012-12-19 02:55:00
9:15 PM,48.2,39.2,71,29.89,10.0,SSW,6.9,-,N/A,,Clear,210,2012-12-19 03:15:00
9:35 PM,48.2,39.2,71,29.89,10.0,SSW,6.9,-,N/A,,Clear,200,2012-12-19 03:35:00
9:55 PM,48.2,39.2,71,29.90,10.0,SSW,5.8,-,N/A,,Clear,200,2012-12-19 03:55:00
10:15 PM,48.2,39.2,71,29.90,10.0,SSW,5.8,-,N/A,,Clear,200,2012-12-19 04:15:00
10:35 PM,48.2,39.2,71,29.90,10.0,SSW,6.9,-,N/A,,Clear,200,2012-12-19 04:35:00
10:55 PM,46.4,39.2,76,29.91,10.0,SSW,8.1,-,N/A,,Clear,200,2012-12-19 04:55:00
11:15 PM,46.4,39.2,76,29.91,10.0,SSW,6.9,-,N/A,,Clear,200,2012-12-19 05:15:00
11:35 PM,46.4,39.2,76,29.91,10.0,South,6.9,-,N/A,,Clear,190,2012-12-19 05:35:00
11:55 PM,46.4,39.2,76,29.91,10.0,SSW,6.9,-,N/A,,Clear,200,2012-12-19 05:55:00